User: anonymous   Login
Location: Boiro
(42.6475°N, 8.8834°W)
Time: 21:02:45
(UTC+01:00)
Language:

LilacSat-2 - Orbit

View from above orbital plane
View from above orbital plane
View from above satellite
View from above satellite

Ground track
Ground track

The orbit data is extracted from the following two-line orbital elements,

1 40908U 15049K   22019.51957786  .00002083  00000-0  11522-3 0  9999
2 40908  97.5120  21.7265 0015756 166.1788 311.6558 15.14881158349930
Epoch (UTC): 19 January 2022 12:28:11
Eccentricity: 0.0015756
inclination: 97.5120°
perigee height: 510 km
apogee height: 532 km
right ascension of ascending node: 21.7265°
argument of perigee: 166.1788°
revolutions per day: 15.14881158
mean anomaly at epoch: 311.6558°
orbit number at epoch: 34993

The dashed part of the orbit path shows where the satellite is in the earth's shadow,  

DLR